Flag for Germany Weather past 2 weeks in Ludwigsfelde, Brandenburg, Germany

Now
54 °F

Light rain. Overcast.


Feels Like: 52 °F
Forecast: 40 / 48 °F
Wind: 8 mph from West

Location: Potsdam

Current Time: Mar 29, 2015 at 1:29:58 PM

Latest Report: Mar 29, 2015 at 1:00 PM


Visibility: 22 mi

Pressure: 29.50 "Hg

Humidity: 68%

Dew point: 44 °F

Location of LudwigsfeldeLocation

Historic Weather in Ludwigsfelde — Graph

°F

Ludwigsfelde temperature yesterday

Maximum temperature yesterday: 49 °F (at 5:00 PM)
Minimum temperature yesterday: 41 °F (at 6:00 AM)
Average temperature yesterday: 44 °F

Past Weeks' High & Low Weather Summary

 TemperatureHumidityPressure
High63 °F (Mar 17, 3:00 PM)99% (Mar 25, 6:00 AM)30.47 "Hg (Mar 25, 6:00 AM)
Low29 °F (Mar 23, 6:00 AM)20% (Mar 18, 4:00 PM)29.55 "Hg (Mar 29, 12:00 PM)
Average44 °F70%30.12 "Hg
* Reported Mar 14 11:00 AM — Mar 29 12:00 Noon, Ludwigsfelde, Weather by CustomWeather, © 2015

Note: Actual official high and low records may vary slightly from our data, if they occured in-between our weather recording intervals... More about our weather records

Advertising

Ludwigsfelde weather history for previous 24 hours

 ConditionsComfort  
Time TempWeatherWind HumidityBarometerVisibility
12:00 PM
Sun, Mar 29
54 °FOvercast.7 mph70%29.55 "Hg22 mi
11:00 AM53 °FOvercast.9 mph75%29.56 "Hg19 mi
10:00 AM51 °FOvercast.7 mph87%29.57 "Hg19 mi
9:00 AM48 °FOvercast.7 mph95%29.59 "Hg11 mi
8:00 AM48 °FOvercast.7 mph90%29.61 "Hg14 mi
7:00 AM46 °FOvercast.7 mph94%29.63 "Hg16 mi
5:00 AM44 °FOvercast.6 mph97%29.69 "Hg19 mi
4:00 AM44 °FLight rain. Overcast.7 mph96%29.72 "Hg16 mi
3:00 AM43 °FOvercast.6 mph92%29.76 "Hg16 mi
1:00 AM44 °FLight rain. Overcast.6 mph77%29.79 "Hg17 mi
12:00 AM43 °FLight rain. Overcast.5 mph71%29.83 "Hg16 mi
11:00 PM
Sat, Mar 28
44 °FLight rain. Overcast.6 mph66%29.87 "Hg16 mi
10:00 PM44 °FLight rain. Overcast.6 mph63%29.90 "Hg17 mi
9:00 PM44 °FOvercast.6 mph64%29.92 "Hg17 mi
8:00 PM43 °FOvercast.5 mph63%29.94 "Hg19 mi
7:00 PM44 °FOvercast.3 mph60%29.97 "Hg19 mi
6:00 PM46 °FPassing clouds.3 mph51%29.99 "Hg19 mi
5:00 PM49 °FScattered clouds.3 mph45%29.99 "Hg19 mi
4:00 PM49 °FPartly sunny.5 mph50%30.02 "Hg14 mi
3:00 PM49 °FOvercast.3 mph56%30.05 "Hg14 mi
2:00 PM47 °FOvercast.2 mph56%30.08 "Hg14 mi
1:00 PM47 °FPartly sunny.3 mph55%30.10 "Hg11 mi
Weather by CustomWeather, © 2015

See weather overviewHow to use our weather pages